Watertown, WI

11:35 PM CDT on October 22, 2019 (GMT -0500)
Watertown Municipal

Weather History for KRYV - September, 2019

Change the Weather History Date:

Wednesday, September 18, 2019

  Actual Average Record
Temperature  
Mean Temperature 69 °F -  
Max Temperature 80 °F 73 °F 92 °F (1955)
Min Temperature 59 °F 50 °F 34 °F (1959)
Cooling Degree Days 4    
Growing Degree Days 19 (Base 50)    
Moisture  
Dew Point 64 °F    
Average Humidity 87    
Maximum Humidity 100    
Minimum Humidity 55    
Precipitation  
Precipitation 0.00 in - - ()
Sea Level Pressure  
Sea Level Pressure 30.08 in    
Wind  
Wind Speed 5 mph ()    
Max Wind Speed 12 mph    
Max Gust Speed 17 mph    
Visibility 8.5 miles    
Events      
Averages and records for this station are not official NWS values.
T = Trace of Precipitation, MM = Missing Value Source: Averaged Metar Reports

Daily Weather History Graph

Daily Weather History Graph

Search for Another Location

Airport or City:

Astronomy

Sep. 18, 2019 Rise Set
Actual Time 6:37 AM CDT 6:59 PM CDT
Civil Twilight 6:09 AM CDT 7:28 PM CDT
Nautical Twilight 5:35 AM CDT 8:01 PM CDT
Astronomical Twilight 5:00 AM CDT 8:36 PM CDT
Moon 9:27 PM CDT (9/18) 10:46 AM CDT (9/18)
Length of Visible Light 13h 19m
Length of Day
12h 22m
Waning Gibbous, 82% of the Moon is Illuminated
Sep 18
Waning Gibbous
Sep 21
Last Quarter
Sep 28
New
Oct 5
First Quarter
Oct 13
Full

Hourly Weather History & Observations

Time (CDT) Temp. Dew Point Humidity Pressure Visibility Wind Dir Wind Speed Gust Speed Precip Events Conditions
12:15 AM 61.0 °F 61.0 °F 100% 30.12 in 10.0 mi SE 4.6 mph - N/A   Clear
12:35 AM 60.8 °F 60.8 °F 100% 30.12 in 10.0 mi SE 4.6 mph - N/A   Clear
12:55 AM 60.8 °F 60.8 °F 100% 30.11 in 10.0 mi SE 4.6 mph - N/A   Clear
1:35 AM 60.4 °F 60.4 °F 100% 30.11 in 10.0 mi SE 3.5 mph - N/A   Clear
1:55 AM 60.3 °F 60.3 °F 100% 30.11 in 10.0 mi SE 4.6 mph - N/A   Clear
2:15 AM 60.4 °F 60.4 °F 100% 30.11 in 7.0 mi SE 4.6 mph - N/A   Clear
2:35 AM 60.8 °F 60.8 °F 100% 30.10 in 10.0 mi SE 3.5 mph - N/A   Clear
2:55 AM 60.8 °F 60.8 °F 100% 30.10 in 7.0 mi SE 4.6 mph - N/A   Clear
3:15 AM 61.7 °F 61.7 °F 100% 30.10 in 7.0 mi SE 5.8 mph - N/A   Clear
3:35 AM 61.7 °F 61.7 °F 100% 30.10 in 7.0 mi SSE 4.6 mph - N/A   Clear
3:55 AM 61.2 °F 61.2 °F 100% 30.10 in 7.0 mi SSE 4.6 mph - N/A   Clear
4:15 AM 60.8 °F 60.8 °F 100% 30.10 in 5.0 mi Calm Calm - N/A   Clear
4:35 AM 60.1 °F 60.1 °F 100% 30.10 in 5.0 mi SE 3.5 mph - N/A   Clear
4:55 AM 59.9 °F 59.9 °F 100% 30.10 in 5.0 mi SSE 3.5 mph - N/A   Clear
5:15 AM 59.9 °F 59.9 °F 100% 30.09 in 4.0 mi SE 4.6 mph - N/A   Clear
5:35 AM 59.7 °F 59.7 °F 100% 30.09 in 4.0 mi SE 3.5 mph - N/A   Clear
5:55 AM 59.9 °F 59.9 °F 100% 30.09 in 4.0 mi SE 4.6 mph - N/A   Clear
6:15 AM 60.1 °F 60.1 °F 100% 30.09 in 5.0 mi SE 5.8 mph - N/A   Clear
6:35 AM 60.1 °F 60.1 °F 100% 30.09 in 4.0 mi SSE 4.6 mph - N/A   Clear
6:55 AM 60.1 °F 60.1 °F 100% 30.09 in 3.0 mi SE 4.6 mph - N/A   Clear
7:15 AM 60.4 °F 60.4 °F 100% 30.09 in 4.0 mi Calm Calm - N/A   Clear
7:35 AM 61.2 °F 61.2 °F 100% 30.10 in 4.0 mi South 3.5 mph - N/A   Clear
7:55 AM 62.6 °F 62.6 °F 100% 30.11 in 5.0 mi South 3.5 mph - N/A   Clear
8:15 AM 63.7 °F 63.7 °F 100% 30.12 in 5.0 mi South 4.6 mph - N/A   Clear
8:35 AM 64.0 °F 64.0 °F 100% 30.13 in 7.0 mi South 5.8 mph - N/A   Clear
8:55 AM 64.8 °F 64.8 °F 100% 30.13 in 7.0 mi SSE 5.8 mph - N/A   Clear
9:15 AM 65.3 °F 65.3 °F 100% 30.13 in 7.0 mi South 5.8 mph - N/A   Clear
9:35 AM 65.3 °F 65.3 °F 100% 30.13 in 10.0 mi South 3.5 mph - N/A   Clear
9:55 AM 65.8 °F 65.8 °F 100% 30.13 in 10.0 mi SSE 4.6 mph - N/A   Clear
10:15 AM 68.2 °F 67.1 °F 96% 30.13 in 10.0 mi South 6.9 mph - N/A   Clear
10:35 AM 71.2 °F 67.5 °F 88% 30.13 in 10.0 mi South 6.9 mph - N/A   Clear
10:55 AM 72.5 °F 67.1 °F 83% 30.13 in 10.0 mi SSW 9.2 mph - N/A   Clear
11:15 AM 73.8 °F 67.6 °F 81% 30.13 in 10.0 mi South 6.9 mph - N/A   Clear
11:35 AM 74.8 °F 68.2 °F 80% 30.13 in 10.0 mi South 8.1 mph - N/A   Clear
11:55 AM 75.6 °F 66.4 °F 73% 30.12 in 10.0 mi SW 8.1 mph - N/A   Scattered Clouds
12:15 PM 76.3 °F 65.5 °F 69% 30.13 in 10.0 mi South 5.8 mph - N/A   Clear
12:35 PM 77.2 °F 66.7 °F 70% 30.11 in 10.0 mi South 8.1 mph - N/A   Clear
12:55 PM 77.7 °F 65.3 °F 65% 30.11 in 10.0 mi SSE 8.1 mph - N/A   Clear
1:15 PM 78.6 °F 64.9 °F 63% 30.09 in 10.0 mi South 9.2 mph - N/A   Clear
1:35 PM 79.2 °F 65.8 °F 64% 30.09 in 10.0 mi SSE 5.8 mph - N/A   Clear
1:55 PM 79.5 °F 64.9 °F 61% 30.08 in 10.0 mi South 9.2 mph - N/A   Clear
2:15 PM 79.7 °F 63.9 °F 58% 30.07 in 10.0 mi South 9.2 mph 16.1 mph N/A   Clear
2:35 PM 79.7 °F 65.3 °F 61% 30.06 in 10.0 mi South 10.4 mph 16.1 mph N/A   Clear
2:55 PM 79.9 °F 62.6 °F 55% 30.06 in 10.0 mi South 11.5 mph - N/A   Clear
3:15 PM 79.3 °F 64.4 °F 60% 30.05 in 10.0 mi South 6.9 mph - N/A   Clear
3:35 PM 79.9 °F 64.2 °F 59% 30.05 in 10.0 mi South 10.4 mph 17.3 mph N/A   Clear
3:55 PM 79.5 °F 64.2 °F 59% 30.04 in 10.0 mi South 11.5 mph - N/A   Clear
4:15 PM 79.0 °F 64.9 °F 62% 30.03 in 10.0 mi South 11.5 mph 17.3 mph N/A   Clear
4:35 PM 78.8 °F 64.6 °F 62% 30.03 in 10.0 mi South 9.2 mph 16.1 mph N/A   Clear
4:55 PM 77.9 °F 64.9 °F 64% 30.03 in 10.0 mi South 9.2 mph - N/A   Clear
5:15 PM 77.4 °F 65.1 °F 66% 30.02 in 10.0 mi SSE 6.9 mph - N/A   Clear
5:35 PM 77.0 °F 64.4 °F 65% 30.01 in 10.0 mi SSE 8.1 mph - N/A   Clear
5:55 PM 75.7 °F 63.9 °F 66% 30.01 in 10.0 mi SSE 9.2 mph - N/A   Clear
6:15 PM 74.7 °F 64.4 °F 70% 30.02 in 10.0 mi South 5.8 mph - N/A   Clear
6:35 PM 73.6 °F 64.4 °F 73% 30.03 in 10.0 mi South 5.8 mph - N/A   Clear
7:15 PM 71.8 °F 64.4 °F 77% 30.03 in 10.0 mi SSE 3.5 mph - N/A   Clear
7:35 PM 70.7 °F 64.6 °F 81% 30.03 in 10.0 mi SE 3.5 mph - N/A   Clear
7:55 PM 69.4 °F 65.8 °F 88% 30.03 in 7.0 mi SE 5.8 mph - N/A   Clear
8:15 PM 69.8 °F 65.3 °F 86% 30.05 in 10.0 mi SSE 3.5 mph - N/A   Clear
8:35 PM 67.8 °F 66.2 °F 95% 30.05 in 10.0 mi Calm Calm - N/A   Clear
8:55 PM 67.3 °F 67.3 °F 100% 30.06 in 10.0 mi ESE 5.8 mph - N/A   Clear
9:15 PM 68.0 °F 68.0 °F 100% 30.07 in 10.0 mi SE 4.6 mph - N/A   Clear
9:35 PM 67.8 °F 67.8 °F 100% 30.07 in 10.0 mi SE 4.6 mph - N/A   Clear
9:55 PM 67.3 °F 67.3 °F 100% 30.06 in 10.0 mi SE 5.8 mph - N/A   Clear
10:15 PM 66.9 °F 66.9 °F 100% 30.06 in 10.0 mi ESE 3.5 mph - N/A   Clear
10:35 PM 66.4 °F 66.4 °F 100% 30.06 in 7.0 mi Calm Calm - N/A   Clear
10:55 PM 65.5 °F 65.5 °F 100% 30.06 in 10.0 mi ESE 3.5 mph - N/A   Clear
11:15 PM 65.3 °F 65.3 °F 100% 30.07 in 10.0 mi Calm Calm - N/A   Clear
11:35 PM 65.8 °F 65.8 °F 100% 30.07 in 10.0 mi Calm Calm - N/A   Clear
11:55 PM 66.2 °F 66.2 °F 100% 30.07 in 10.0 mi Calm Calm - N/A   Clear